Waarnemingen

Advertentie
Mijn weer
Tjakaape, Zweden (2141): temperatuur & dauwpunt: 17.07.2018 00:00:00 - 23.07.2018 00:00:00 (CEST)Tjakaape, Zweden (2141): windsnelheid & windstoten: 17.07.2018 00:00:00 - 23.07.2018 00:00:00 (CEST)Tjakaape, Zweden (2141): windrichting: 17.07.2018 00:00:00 - 23.07.2018 00:00:00 (CEST)Tjakaape, Zweden (2141): luchtdruk: 17.07.2018 00:00:00 - 23.07.2018 00:00:00 (CEST)Tjakaape, Zweden (2141): zicht: 17.07.2018 00:00:00 - 23.07.2018 00:00:00 (CEST)Tjakaape, Zweden (2141): neerslag: 17.07.2018 00:00:00 - 23.07.2018 00:00:00 (CEST)
Datum & Tijd tt [°C] td [°C] ff [km/u] ff [kn] fx [km/u] fx [kn] dd ppp [hPa] vv [km] rr [mm]
23.07.2018 00:00:00 15,4 15,0 7 4 11 6 ZZW 1004,5 22 0,0
22.07.2018 23:00:00 15,9 14,8 4 2 14 8 Z 1004,2 30 0,0
22.07.2018 22:00:00 17,5 16,0 7 4 14 8 Z 1003,5 35 0,0
22.07.2018 21:00:00 17,8 15,2 4 2 11 6 Z 1003,3 45 0,0
22.07.2018 20:00:00 18,7 14,0 7 4 14 8 Z 1002,8 45 0,0
22.07.2018 19:00:00 22,4 14,5 7 4 18 10 Z 1001,9 40 0,0
22.07.2018 18:00:00 20,9 15,0 7 4 14 8 Z 1001,9 45 0,0
22.07.2018 17:00:00 19,1 14,8 7 4 14 8 ZW 1002,4 40 0,0
22.07.2018 16:00:00 18,8 16,4 7 4 14 8 Z 1002,7 35 0,0
22.07.2018 15:00:00 17,8 16,5 7 4 11 6 ZO 1003,1 35 0,4
22.07.2018 14:00:00 17,0 15,9 4 2 11 6 Z 1003,4 35 0,7
22.07.2018 13:00:00 18,1 14,6 4 2 25 14 WNW 1003,2 45 0,0
22.07.2018 12:00:00 21,3 14,9 11 6 18 10 ZO 1001,9 40 0,0
22.07.2018 11:00:00 21,4 15,0 4 2 14 8 O 1001,8 35 0,0
22.07.2018 10:00:00 19,8 15,1 7 4 18 10 ONO 1003,1 35 0,0
22.07.2018 09:00:00 19,8 15,0 14 8 22 12 ONO 1003,0 35 0,0
22.07.2018 08:00:00 18,7 14,8 14 8 18 10 NNO 1003,3 40 0,0
22.07.2018 07:00:00 18,3 14,0 11 6 14 8 NNO 1003,6 40 0,0
22.07.2018 06:00:00 15,7 13,5 4 2 11 6 NNW 1004,3 45 0,0
22.07.2018 05:00:00 14,5 13,0 7 4 11 6 NW 1005,0 45 0,0
22.07.2018 04:00:00 13,3 12,4 4 2 7 4 NW 1005,3 45 0,0
22.07.2018 03:00:00 14,5 12,4 7 4 11 6 NO 1004,9 45 0,0
22.07.2018 02:00:00 13,0 11,7 7 4 11 6 NNO 1005,3 45 0,0
22.07.2018 01:00:00 13,5 12,2 4 2 11 6 O 1005,9 45 0,0
22.07.2018 00:00:00 14,4 12,9 7 4 14 8 NW 1006,3 40 0,0
21.07.2018 23:00:00 14,6 13,0 0 0 14 8 N 1006,0 45 0,0
21.07.2018 22:00:00 16,0 13,5 11 6 14 8 ONO 1006,0 45 0,0
21.07.2018 21:00:00 16,2 12,9 7 4 29 16 N 1006,3 45 0,2
21.07.2018 20:00:00 17,5 13,2 14 8 29 16 WNW 1006,3 45 0,0
21.07.2018 19:00:00 20,8 14,9 11 6 25 14 Z 1004,8 40 0,0
21.07.2018 18:00:00 23,4 15,4 14 8 29 16 ZZO 1003,9 40 0,0
21.07.2018 17:00:00 22,3 14,2 14 8 36 19 ZO 1004,7 40 0,0
21.07.2018 16:00:00 23,5 13,1 25 14 36 19 O 1004,7 45 0,0
21.07.2018 15:00:00 26,6 10,3 11 6 40 21 ZO 1003,8 35 0,0
21.07.2018 14:00:00 26,2 11,2 11 6 18 10 Z 1004,1 35 0,0
21.07.2018 13:00:00 25,1 12,3 11 6 18 10 ZZO 1005,3 35 0,0
21.07.2018 12:00:00 22,8 11,8 11 6 18 10 ZO 1006,7 45 0,0
21.07.2018 11:00:00 22,3 10,8 11 6 14 8 ZO 1007,2 40 0,0
21.07.2018 10:00:00 21,6 12,4 7 4 14 8 ZO 1007,7 45 0,0
21.07.2018 09:00:00 22,3 12,8 7 4 14 8 ZZO 1007,7 45 0,0
21.07.2018 08:00:00 21,1 12,8 4 2 7 4 Z 1008,2 40 0,0
21.07.2018 07:00:00 17,5 12,6 0 0 4 2 N 1009,4 45 0,0
21.07.2018 06:00:00 14,8 13,2 0 0 7 4 N 1010,3 45 0,0
21.07.2018 05:00:00 14,6 11,9 7 4 7 4 ZZO 1010,5 45 0,0
21.07.2018 04:00:00 12,7 10,4 4 2 7 4 OZO 1011,1 45 0,0
21.07.2018 03:00:00 13,4 10,8 7 4 7 4 O 1011,1 45 0,0
21.07.2018 02:00:00 13,7 10,9 4 2 11 6 ZO 1011,2 45 0,0
21.07.2018 01:00:00 15,9 11,1 7 4 14 8 ZO 1011,1 45 0,0
21.07.2018 00:00:00 17,3 12,0 11 6 11 6 ZO 1010,9 45 0,0
20.07.2018 23:00:00 17,6 11,8 4 2 11 6 ZZO 1011,5 50 0,0
20.07.2018 22:00:00 19,8 11,8 4 2 18 10 Z 1010,8 45 0,0
20.07.2018 21:00:00 21,4 11,7 11 6 22 12 ZO 1010,2 45 0,0
20.07.2018 20:00:00 23,8 11,8 14 8 25 14 ZZO 1009,7 45 0,0
20.07.2018 19:00:00 24,3 11,6 14 8 25 14 ZO 1009,5 45 0,0
20.07.2018 18:00:00 25,7 11,1 18 10 29 16 ZO 1009,2 45 0,0
20.07.2018 17:00:00 25,4 11,6 14 8 29 16 ZO 1009,4 40 0,0
20.07.2018 16:00:00 25,1 10,9 11 6 25 14 ZO 1010,0 45 0,0
20.07.2018 15:00:00 26,7 10,4 11 6 25 14 ZZO 1010,1 40 0,0
20.07.2018 14:00:00 24,9 9,2 11 6 22 12 ZO 1011,0 45 0,0
20.07.2018 13:00:00 24,8 10,3 11 6 22 12 OZO 1010,8 45 0,0
20.07.2018 12:00:00 24,6 11,2 11 6 25 14 ZO 1011,3 45 0,0
20.07.2018 11:00:00 25,0 10,8 14 8 22 12 ZZO 1011,7 40 0,0
20.07.2018 10:00:00 23,8 10,5 11 6 25 14 ZO 1012,2 45 0,0
20.07.2018 09:00:00 22,4 10,5 11 6 25 14 OZO 1012,7 45 0,0
20.07.2018 08:00:00 20,6 13,8 7 4 11 6 O 1013,4 40 0,0
20.07.2018 07:00:00 17,8 14,1 4 2 7 4 ONO 1014,3 45 0,0
20.07.2018 06:00:00 16,3 13,6 4 2 14 8 NO 1015,0 45 0,0
20.07.2018 05:00:00 14,5 13,2 11 6 14 8 NO 1015,6 45 0,0
20.07.2018 04:00:00 13,1 12,6 4 2 7 4 NO 1016,1 45 0,0
20.07.2018 03:00:00 13,7 12,4 4 2 14 8 NO 1016,3 45 0,0
20.07.2018 02:00:00 14,9 12,8 11 6 14 8 NO 1015,9 45 0,0
20.07.2018 01:00:00 15,8 12,7 11 6 14 8 NNO 1015,8 45 0,0
20.07.2018 00:00:00 16,5 12,8 11 6 14 8 NNO 1015,7 45 0,0
19.07.2018 23:00:00 17,0 11,7 7 4 14 8 NO 1015,6 45 0,0
19.07.2018 22:00:00 18,1 11,9 7 4 18 10 ONO 1015,5 45 0,0
19.07.2018 21:00:00 22,5 12,2 11 6 22 12 ZZO 1014,0 45 0,0
19.07.2018 20:00:00 23,8 12,4 11 6 25 14 Z 1013,4 45 0,0
19.07.2018 19:00:00 24,3 11,9 18 10 32 18 ZO 1012,8 45 0,0
19.07.2018 18:00:00 26,7 11,6 18 10 29 16 ZZO 1012,2 45 0,0
19.07.2018 17:00:00 27,6 9,9 18 10 32 18 ZZO 1012,0 40 0,0
19.07.2018 16:00:00 27,9 9,2 14 8 32 18 ZZO 1012,1 45 0,0
19.07.2018 15:00:00 27,8 10,5 14 8 36 19 Z 1012,4 40 0,0
19.07.2018 14:00:00 26,8 10,9 18 10 36 19 ZZO 1012,9 35 0,0
19.07.2018 13:00:00 26,1 10,7 18 10 32 18 ZO 1013,3 45 0,0
19.07.2018 12:00:00 25,5 10,9 18 10 32 18 ZO 1013,5 40 0,0
19.07.2018 11:00:00 25,5 11,6 22 12 32 18 ZO 1013,7 40 0,0
19.07.2018 10:00:00 25,2 10,3 14 8 25 14 Z 1013,8 45 0,0
19.07.2018 09:00:00 24,4 12,7 11 6 18 10 ZZO 1014,0 40 0,0
19.07.2018 08:00:00 23,5 11,9 11 6 14 8 ZZO 1014,3 45 0,0
19.07.2018 07:00:00 20,8 11,7 7 4 14 8 Z 1015,0 45 0,0
19.07.2018 06:00:00 20,0 11,2 7 4 14 8 Z 1015,2 45 0,0
19.07.2018 05:00:00 17,8 10,9 4 2 14 8 ZZO 1015,8 45 0,0
19.07.2018 04:00:00 17,1 10,7 11 6 18 10 ZZO 1016,1 45 0,0
19.07.2018 03:00:00 17,3 10,7 11 6 18 10 ZZO 1016,2 45 0,0
19.07.2018 02:00:00 17,8 11,1 11 6 18 10 ZZO 1016,2 45 0,0
19.07.2018 01:00:00 17,3 10,2 7 4 14 8 ZZO 1016,5 45 0,0
19.07.2018 00:00:00 18,3 9,4 11 6 22 12 ZZO 1016,3 45 0,0
18.07.2018 23:00:00 19,9 9,2 14 8 25 14 ZO 1015,7 50 0,0
18.07.2018 22:00:00 21,4 11,1 14 8 22 12 ZZO 1015,4 45 0,0
18.07.2018 21:00:00 23,2 13,1 14 8 25 14 ZO 1015,0 45 0,0
18.07.2018 20:00:00 24,5 13,1 14 8 32 18 ZO 1014,7 45 0,0
18.07.2018 19:00:00 25,8 13,3 22 12 36 19 ZZO 1014,6 40 0,0
18.07.2018 18:00:00 27,2 12,8 18 10 36 19 ZZO 1014,2 45 0,0
18.07.2018 17:00:00 27,2 13,5 22 12 36 19 ZZO 1014,3 45 0,0
18.07.2018 16:00:00 28,4 11,7 22 12 32 18 ZZO 1014,3 40 0,0
18.07.2018 15:00:00 27,6 11,4 18 10 29 16 ZO 1015,1 40 0,0
18.07.2018 14:00:00 27,8 10,5 11 6 29 16 ZZO 1015,6 40 0,0
18.07.2018 13:00:00 28,3 10,0 11 6 22 12 Z 1016,0 45 0,0
18.07.2018 12:00:00 27,2 10,0 7 4 22 12 ZZO 1016,6 40 0,0
18.07.2018 11:00:00 26,5 10,6 11 6 22 12 Z 1016,9 45 0,0
18.07.2018 10:00:00 25,7 10,7 11 6 18 10 Z 1017,3 40 0,0
18.07.2018 09:00:00 24,6 11,2 11 6 18 10 Z 1017,7 45 0,0
18.07.2018 08:00:00 23,0 12,3 11 6 18 10 Z 1018,1 45 0,0
18.07.2018 07:00:00 22,1 12,9 7 4 11 6 Z 1018,1 45 0,0
18.07.2018 06:00:00 19,8 12,3 4 2 11 6 Z 1018,4 45 0,0
18.07.2018 05:00:00 18,2 11,3 7 4 14 8 ZZO 1018,9 45 0,0
18.07.2018 04:00:00 16,5 9,9 11 6 14 8 ZZO 1019,3 45 0,0
18.07.2018 03:00:00 13,8 9,0 7 4 7 4 ZO 1019,9 45 0,0
18.07.2018 02:00:00 15,3 8,8 7 4 11 6 ZO 1019,5 26 0,0
18.07.2018 01:00:00 15,5 9,4 7 4 11 6 ZO 1019,3 21 0,0
18.07.2018 00:00:00 17,3 9,5 7 4 14 8 ZO 1018,9 17 0,0
17.07.2018 23:00:00 18,9 11,2 7 4 14 8 ZO 1018,4 17 0,0
17.07.2018 22:00:00 21,0 12,2 7 4 14 8 ZO 1017,9 23 0,0
17.07.2018 21:00:00 24,6 11,9 7 4 22 12 ZO 1016,6 35 0,0
17.07.2018 20:00:00 26,1 11,8 14 8 22 12 ZO 1016,1 45 0,0
17.07.2018 19:00:00 27,2 12,4 14 8 29 16 ZO 1015,8 40 0,0
17.07.2018 18:00:00 28,3 12,6 11 6 29 16 ZO 1015,5 45 0,0
17.07.2018 17:00:00 28,8 12,7 14 8 25 14 ZO 1015,6 35 0,0
17.07.2018 16:00:00 27,7 11,7 11 6 25 14 OZO 1015,8 40 0,0
17.07.2018 15:00:00 27,9 12,3 14 8 22 12 OZO 1016,0 40 0,0
17.07.2018 14:00:00 27,5 12,3 14 8 22 12 OZO 1016,0 35 0,0
17.07.2018 13:00:00 27,8 13,0 14 8 22 12 ZZO 1016,2 30 0,0
17.07.2018 12:00:00 26,0 12,8 7 4 22 12 ZZO 1016,9 45 0,0
17.07.2018 11:00:00 26,4 12,8 7 4 18 10 Z 1016,6 45 0,0
17.07.2018 10:00:00 26,2 12,6 4 2 11 6 Z 1016,5 40 0,0
17.07.2018 09:00:00 25,5 13,4 7 4 11 6 Z 1016,9 45 0,0
17.07.2018 08:00:00 24,3 13,8 4 2 7 4 Z 1016,8 45 0,0
17.07.2018 07:00:00 22,5 14,3 4 2 7 4 ZZW 1017,3 45 0,0
17.07.2018 06:00:00 20,4 13,1 0 0 7 4 N 1017,9 45 0,0
17.07.2018 05:00:00 17,7 12,6 4 2 7 4 ZZO 1018,6 45 0,0
17.07.2018 04:00:00 16,1 12,5 4 2 7 4 ZO 1018,9 45 0,0
17.07.2018 03:00:00 12,8 11,2 4 2 7 4 ZO 1019,7 13 0,0
17.07.2018 02:00:00 13,1 11,3 4 2 11 6 ZZO 1019,4 9 0,0
17.07.2018 01:00:00 15,4 12,2 7 4 14 8 ZO 1018,7 10 0,0
17.07.2018 00:00:00 17,5 12,0 7 4 14 8 ZZO 1018,0 16 0,0

tt = temperatuur
td = dauwpunt
ff = windsnelheid
fx = windstoten
dd = windrichting
ppp = luchtdruk
vv = zicht
rr = neerslag

Weerstations in de omgeving